WJA600 CYVR-CYXE

Flight info

Callsign WJA600
Flight time N/A
Altitude 35000
Route DAPED DCT PETLI DCT DATNO DCT MAVOB MAVOB7
Aircraft B738/M-SDE2E3FGHIRWXY/LB1

Departure

Time 2026-05-07 17:28
Airport Vancouver International Airport (CYVR)

Arrival

Time N/A
Airport Saskatoon John G. Diefenbaker International Airport (CYXE)
Time Latitude Longitude Altitude Speed Heading
2026-05-07 17:11 49.19703 -123.17312 22 ft 0 kts 338°
2026-05-07 17:21 49.19684 -123.17302 24 ft 4 kts 353°
2026-05-07 17:21 49.19660 -123.17306 24 ft 4 kts 44°
2026-05-07 17:21 49.19654 -123.17327 23 ft 1 kts 102°
2026-05-07 17:22 49.19655 -123.17333 23 ft 0 kts 102°
2026-05-07 17:24 49.19650 -123.17300 22 ft 8 kts 102°
2026-05-07 17:24 49.19671 -123.17211 24 ft 13 kts 39°
2026-05-07 17:24 49.19762 -123.17191 22 ft 13 kts
2026-05-07 17:24 49.19854 -123.17186 23 ft 14 kts
2026-05-07 17:25 49.19934 -123.17124 22 ft 13 kts 46°
2026-05-07 17:25 49.19949 -123.16995 22 ft 13 kts 100°
2026-05-07 17:25 49.19932 -123.16847 22 ft 16 kts 99°
2026-05-07 17:25 49.19913 -123.16677 23 ft 16 kts 100°
2026-05-07 17:26 49.19894 -123.16512 22 ft 15 kts 100°
2026-05-07 17:26 49.19876 -123.16355 22 ft 15 kts 99°
2026-05-07 17:26 49.19888 -123.16220 23 ft 13 kts 34°
2026-05-07 17:26 49.19963 -123.16195 24 ft 9 kts
2026-05-07 17:27 49.20027 -123.16179 23 ft 9 kts
2026-05-07 17:27 49.20075 -123.16223 21 ft 9 kts 287°
2026-05-07 17:27 49.20089 -123.16341 23 ft 19 kts 280°
2026-05-07 17:27 49.20159 -123.16973 23 ft 104 kts 279°
2026-05-07 17:28 49.20322 -123.18489 113 ft 172 kts 278°
2026-05-07 17:28 49.20415 -123.20356 1087 ft 183 kts 271°
2026-05-07 17:28 49.20229 -123.22349 1914 ft 198 kts 240°
2026-05-07 17:28 49.19176 -123.23866 2369 ft 225 kts 201°
2026-05-07 17:29 49.17598 -123.23967 2785 ft 237 kts 160°
2026-05-07 17:29 49.16249 -123.22564 3436 ft 238 kts 130°
2026-05-07 17:29 49.15504 -123.20310 3988 ft 246 kts 101°
2026-05-07 17:29 49.15397 -123.17627 4481 ft 259 kts 88°
2026-05-07 17:30 49.15434 -123.14850 5347 ft 262 kts 88°
2026-05-07 17:30 49.15479 -123.12070 6259 ft 263 kts 89°
2026-05-07 17:30 49.15516 -123.09241 7073 ft 269 kts 89°
2026-05-07 17:30 49.15546 -123.06358 7853 ft 273 kts 89°
2026-05-07 17:31 49.15567 -123.03437 8669 ft 277 kts 89°
2026-05-07 17:31 49.15582 -123.00467 9405 ft 284 kts 89°
2026-05-07 17:31 49.15591 -122.97421 10140 ft 289 kts 89°
2026-05-07 17:31 49.15597 -122.94257 10484 ft 310 kts 89°
2026-05-07 17:32 49.15600 -122.90841 10665 ft 334 kts 89°
2026-05-07 17:32 49.15599 -122.87193 11005 ft 350 kts 89°
2026-05-07 17:32 49.15595 -122.83437 11620 ft 357 kts 89°
2026-05-07 17:32 49.15591 -122.80923 12088 ft 359 kts 89°
2026-05-07 17:33 49.15579 -122.75784 13021 ft 365 kts 89°
2026-05-07 17:33 49.15569 -122.71884 13696 ft 370 kts 89°
2026-05-07 17:33 49.15557 -122.67936 14319 ft 374 kts 89°
2026-05-07 17:33 49.15543 -122.63939 14922 ft 379 kts 89°
2026-05-07 17:34 49.15528 -122.59885 15509 ft 384 kts 89°
2026-05-07 17:34 49.15512 -122.55780 16113 ft 388 kts 88°
2026-05-07 17:34 49.15493 -122.51634 16705 ft 393 kts 88°
2026-05-07 17:34 49.15473 -122.47442 17285 ft 397 kts 88°
2026-05-07 17:35 49.15452 -122.43200 17861 ft 401 kts 88°
2026-05-07 17:35 49.15428 -122.38914 18428 ft 406 kts 88°
2026-05-07 17:35 49.15403 -122.34583 18917 ft 410 kts 88°
2026-05-07 17:35 49.15375 -122.30201 19399 ft 415 kts 88°
2026-05-07 17:36 49.15346 -122.25777 19886 ft 419 kts 88°
2026-05-07 17:36 49.15314 -122.21305 20375 ft 423 kts 88°
2026-05-07 17:36 49.15280 -122.16791 20854 ft 427 kts 88°
2026-05-07 17:36 49.15245 -122.12233 21316 ft 431 kts 88°
2026-05-07 17:37 49.15207 -122.07629 21768 ft 435 kts 88°
2026-05-07 17:37 49.15166 -122.02985 22220 ft 439 kts 88°
2026-05-07 17:37 49.15124 -121.98304 22634 ft 443 kts 88°
2026-05-07 17:37 49.15079 -121.93586 23103 ft 445 kts 88°
2026-05-07 17:38 49.15032 -121.88843 23554 ft 449 kts 88°
2026-05-07 17:38 49.14983 -121.84050 23928 ft 453 kts 88°
2026-05-07 17:38 49.14932 -121.79221 24294 ft 457 kts 88°
2026-05-07 17:38 49.14879 -121.74356 24704 ft 459 kts 88°
2026-05-07 17:39 49.14824 -121.69465 25096 ft 462 kts 88°
2026-05-07 17:39 49.14942 -121.64634 25450 ft 462 kts 80°
2026-05-07 17:39 49.15344 -121.59761 25790 ft 464 kts 77°
2026-05-07 17:39 49.15816 -121.54861 26002 ft 468 kts 77°
2026-05-07 17:40 49.16311 -121.49935 26402 ft 470 kts 77°
2026-05-07 17:40 49.16799 -121.44988 26764 ft 471 kts 77°
2026-05-07 17:40 49.17273 -121.40020 27058 ft 474 kts 77°
2026-05-07 17:40 49.17734 -121.35023 27384 ft 477 kts 77°
2026-05-07 17:41 49.18187 -121.29978 27654 ft 481 kts 78°
2026-05-07 17:41 49.18634 -121.24892 27965 ft 484 kts 78°
2026-05-07 17:41 49.19078 -121.19784 28341 ft 485 kts 78°
2026-05-07 17:41 49.19520 -121.14653 28683 ft 488 kts 77°
2026-05-07 17:42 49.19964 -121.09487 28869 ft 494 kts 78°
2026-05-07 17:42 49.20412 -121.04258 29109 ft 497 kts 78°
2026-05-07 17:42 49.20857 -120.99022 29579 ft 496 kts 77°
2026-05-07 17:42 49.21302 -120.93773 29900 ft 499 kts 77°
2026-05-07 17:43 49.21744 -120.88511 30248 ft 500 kts 78°
2026-05-07 17:43 49.22185 -120.83242 30607 ft 499 kts 77°
2026-05-07 17:43 49.22623 -120.77987 31000 ft 497 kts 77°
2026-05-07 17:43 49.23058 -120.72741 31353 ft 497 kts 77°
2026-05-07 17:44 49.23490 -120.67504 31699 ft 496 kts 77°
2026-05-07 17:44 49.23920 -120.62260 32015 ft 496 kts 77°
2026-05-07 17:44 49.24347 -120.57032 32347 ft 495 kts 77°
2026-05-07 17:44 49.24772 -120.51797 32675 ft 496 kts 77°
2026-05-07 17:45 49.25194 -120.46568 33042 ft 495 kts 77°
2026-05-07 17:45 49.25611 -120.41355 33471 ft 492 kts 77°
2026-05-07 17:45 49.26024 -120.36168 33852 ft 490 kts 77°
2026-05-07 17:45 49.26433 -120.30995 34137 ft 490 kts 77°
2026-05-07 17:46 49.26842 -120.25819 34411 ft 489 kts 77°
2026-05-07 17:46 49.27246 -120.20657 34721 ft 488 kts 76°
2026-05-07 17:46 49.27649 -120.15495 34958 ft 488 kts 76°
2026-05-07 17:46 49.27914 -120.12078 35078 ft 489 kts 76°
2026-05-07 17:47 49.28713 -120.01683 35083 ft 491 kts 76°
2026-05-07 17:47 49.29502 -119.91301 35056 ft 490 kts 77°
2026-05-07 17:48 49.30400 -119.79308 35049 ft 486 kts 76°
2026-05-07 17:48 49.31040 -119.70713 35065 ft 485 kts 76°
2026-05-07 17:49 49.31958 -119.60510 35037 ft 476 kts 68°
2026-05-07 17:49 49.34051 -119.51041 35046 ft 468 kts 61°
2026-05-07 17:50 49.36313 -119.41686 35039 ft 468 kts 61°
2026-05-07 17:50 49.38525 -119.32334 35098 ft 471 kts 62°
2026-05-07 17:51 49.40728 -119.22825 35048 ft 474 kts 62°
2026-05-07 17:51 49.42922 -119.13251 35038 ft 476 kts 62°
2026-05-07 17:52 49.45111 -119.03652 35051 ft 477 kts 62°
2026-05-07 17:52 49.47292 -118.94032 35055 ft 476 kts 62°
2026-05-07 17:53 49.49473 -118.84392 35041 ft 477 kts 62°
2026-05-07 17:53 49.51653 -118.74733 35046 ft 479 kts 62°
2026-05-07 17:54 49.53831 -118.65024 35046 ft 479 kts 63°
2026-05-07 17:54 49.55994 -118.55329 35049 ft 479 kts 63°
2026-05-07 17:55 49.58158 -118.45595 35037 ft 481 kts 62°
2026-05-07 17:55 49.60309 -118.35862 35062 ft 479 kts 63°
2026-05-07 17:56 49.62449 -118.26135 35053 ft 478 kts 63°
2026-05-07 17:56 49.64576 -118.16413 35070 ft 479 kts 63°
2026-05-07 17:57 49.66340 -118.08324 35086 ft 479 kts 63°
2026-05-07 17:57 49.68805 -117.96989 35040 ft 478 kts 63°
2026-05-07 17:58 49.70907 -117.87257 35039 ft 476 kts 63°
2026-05-07 17:58 49.72989 -117.77564 35012 ft 475 kts 63°
2026-05-07 17:59 49.75066 -117.67881 35047 ft 474 kts 63°
2026-05-07 17:59 49.77123 -117.58206 35052 ft 474 kts 63°
2026-05-07 18:00 49.79185 -117.48480 35038 ft 476 kts 63°
2026-05-07 18:00 49.81246 -117.38716 35043 ft 478 kts 63°
2026-05-07 18:01 49.83304 -117.28913 35033 ft 479 kts 63°
2026-05-07 18:01 49.85361 -117.19064 35014 ft 482 kts 63°
2026-05-07 18:02 49.88436 -117.04248 35012 ft 482 kts 63°
2026-05-07 18:03 49.90475 -116.94357 35039 ft 480 kts 63°
2026-05-07 18:03 49.92502 -116.84479 35094 ft 481 kts 63°
2026-05-07 18:04 49.94520 -116.74618 35043 ft 484 kts 63°
2026-05-07 18:04 49.96541 -116.64666 35030 ft 482 kts 63°
2026-05-07 18:05 49.98546 -116.54735 35010 ft 480 kts 63°
2026-05-07 18:05 50.00529 -116.44866 35060 ft 477 kts 63°
2026-05-07 18:06 50.01847 -116.38297 35060 ft 479 kts 63°